Location: Bonningues
(50.7927°N, 2.0150°E)
Time: 17:14:37
(UTC+00:00)

Meteor 1-13 Rocket - Pass Details

Date: 08 August 2020
Orbit: 830 x 913 km, 81.3° (Epoch: 24 September)

Event Time Altitude Azimuth Distance (km) Brightness Sun altitude
Rises 22:33:12 0° 346° (NNW) 3,405 8.9 -20.9°
Reaches altitude 10° 22:35:38 10° 346° (NNW) 2,460 7.8 -21.0°
Maximum altitude 22:41:12 82° 260° (W) 845 4.1 -21.3°
Enters shadow 22:43:00 45° 178° (S) 1,129 4.4 -21.4°
